Change the Weather History Date:

Thursday, June 20, 2013

  Actual Average Record
Temperature  
Mean Temperature 66 °F -  
Max Temperature 76 °F 67 °F 82 °F (2008)
Min Temperature 55 °F 54 °F 50 °F (2005)
Growing Degree Days 16 (Base 50)    
Moisture  
Dew Point 56 °F    
Average Humidity 69    
Maximum Humidity 77    
Minimum Humidity 64    
Precipitation  
Precipitation 0.00 in - - ()
Sea Level Pressure  
Sea Level Pressure 29.83 in    
Wind  
Wind Speed 6 mph (WSW)    
Max Wind Speed 32 mph    
Max Gust Speed 56 mph    
Visibility 7 miles    
Events      
Averages and records for this station are not official NWS values.
T = Trace of Precipitation, MM = Missing Value Source: NWS Daily Summary

Daily Weather History Graph

Daily Weather History Graph

Search for Another Location

Airport or City:

Trip Planner

Search our weather history database for the weather conditions in past years. The results will help you decide how hot, cold, wet, or windy it might be!

Date:

Astronomy

Jun. 20, 2013 Rise Set
Actual Time 5:45 AM PDT 8:11 PM PDT
Civil Twilight 5:15 AM PDT 8:40 PM PDT
Nautical Twilight 4:39 AM PDT 9:16 PM PDT
Astronomical Twilight 4:00 AM PDT 9:56 PM PDT
Moon 5:23 PM PDT (6/20) 3:09 AM PDT (6/20)
Length of Visible Light 15h 24m
Length of Day
14h 26m
Waxing Gibbous, 89% of the Moon is Illuminated
Jun 20
Waxing Gibbous
Jun 23
Full
Jun 29
Last Quarter
Jul 8
New
Jul 15
First Quarter

Hourly Weather History & Observations

Time (PDT) Temp. Dew Point Humidity Pressure Visibility Wind Dir Wind Speed Gust Speed Precip Events Conditions
12:54 AM - - N/A% - - West 3.5 mph - N/A   Clear
1:54 AM - - N/A% - - Calm Calm - N/A   Clear
2:54 AM - - N/A% - - NNE 3.5 mph - N/A   Clear
3:54 AM - - N/A% - - NE 4.6 mph - 0.00 in   Clear
4:54 AM - - N/A% - - NNE 4.6 mph - 0.00 in   Clear
5:54 AM 55.8 °F 47.5 °F 74% 29.81 in 7.0 mi NNE 4.6 mph - N/A   Clear
6:39 AM 55.4 °F 48.2 °F 77% 29.81 in 7.0 mi North 32.2 mph 56.4 mph N/A   Squalls
6:54 AM 56.7 °F 48.9 °F 75% 29.83 in 7.0 mi Variable 4.6 mph - N/A   Clear
7:54 AM 63.5 °F 52.0 °F 66% 29.84 in 7.0 mi Calm Calm - N/A   Clear
8:54 AM 65.5 °F 52.9 °F 64% 29.86 in 7.0 mi Calm Calm - N/A   Clear
9:54 AM 66.6 °F 54.7 °F 66% 29.86 in 7.0 mi West 6.9 mph - N/A   Clear
10:54 AM 67.6 °F 56.5 °F 67% 29.86 in 7.0 mi SW 8.1 mph - N/A   Clear
11:54 AM 69.1 °F 58.5 °F 69% 29.88 in 7.0 mi SSW 8.1 mph - N/A   Clear
12:54 PM 70.7 °F 60.3 °F 69% 29.83 in 7.0 mi South 12.7 mph - N/A   Clear
1:54 PM 71.8 °F 60.3 °F 67% 29.84 in 7.0 mi South 10.4 mph - N/A   Clear
2:54 PM 76.6 °F 63.7 °F 64% 29.84 in 7.0 mi South 10.4 mph - N/A   Clear
3:54 PM 73.2 °F 60.6 °F 65% 29.83 in 7.0 mi SW 11.5 mph - N/A   Partly Cloudy
4:54 PM 70.3 °F 57.9 °F 65% 29.82 in 7.0 mi SW 9.2 mph - N/A   Clear
5:54 PM 69.3 °F 56.5 °F 64% 29.81 in 7.0 mi SW 11.5 mph - N/A   Clear
6:54 PM 69.3 °F 56.5 °F 64% 29.81 in 7.0 mi WSW 8.1 mph - N/A   Clear
7:54 PM 65.7 °F 56.7 °F 73% 29.81 in 7.0 mi WSW 6.9 mph - N/A   Clear
8:54 PM 65.3 °F 56.7 °F 74% 29.82 in 7.0 mi West 4.6 mph - N/A   Clear
9:54 PM 63.5 °F 54.1 °F 72% 29.83 in 7.0 mi West 3.5 mph - N/A   Clear
10:54 PM 63.5 °F 54.1 °F 72% 29.83 in 7.0 mi Calm Calm - N/A   Clear
11:54 PM - - N/A% - - WSW 4.6 mph - N/A   Clear